#timestamp,LO_Frequency,Hit,StdDev 
1511179215.7,286046998.1,P
1511179235.6,286047000.2,N
1511179255.4,286047006.1,Y
1511179275.2,286047011.8,P
1511179295.1,286047008.4,N
1511179296.0,286047008.4,N
1511179315.8,286047004.5,N
1511179335.6,286047001.4,N
1511179355.5,286047004.4,N
1511179375.3,286047001.3,N
1511179395.1,286047008.4,N
1511179415.9,286047010.3,N
1511179435.7,286047010.6,N
1511179455.5,286047011.1,N
1511179475.4,286047008.9,N
1511179495.2,286047009.1,N
1511179515.0,286047012.4,Y
1511179515.9,286047012.4,P
1511179535.8,286047001.5,N
1511179555.6,286047005.1,N
1511179575.4,286047010.8,N
1511179595.3,286047012.0,Y
1511179615.1,286047008.3,P
1511179616.0,286047008.3,P
1511179635.8,286047008.3,P
1511179655.7,286047012.3,Y
1511179675.5,286047004.6,P
1511179695.3,286047003.2,N
1511179715.2,286047001.7,N
1511179735.9,286046996.8,N
1511179755.7,286046993.7,N
1511179775.5,286046990.2,N
1511179795.4,286046988.6,N
1511179815.2,286046990.0,N
1511179835.0,286046982.1,N
1511179835.9,286046982.1,N
1511179855.8,286046983.6,N
1511179875.6,286046982.3,N
1511179895.4,286046979.7,N
1511179915.3,286046984.6,N
1511179935.1,286046988.0,N
1511179936.0,286046988.0,N
1511179955.8,286046986.2,N
1511179975.7,286046984.0,N
1511179995.5,286046983.2,N
1511180015.3,286046988.0,N
1511180035.2,286046991.2,N
1511180055.9,286046994.8,N
1511180075.7,286046997.5,N
1511180095.6,286047000.7,N
1511180115.4,286047002.3,N
1511180135.2,286046996.6,N
1511180155.0,286046995.6,N
1511180155.9,286046995.6,N
1511180175.8,286046993.1,N
1511180195.6,286046988.8,N
1511180215.4,286046988.4,N
1511180235.3,286046986.2,N
1511180255.1,286046980.5,Y
1511180275.8,286046987.4,P
1511180295.7,286046985.5,P
1511180315.5,286046983.7,P
1511180335.3,286046982.8,Y
1511180355.2,286046993.1,P
1511180375.0,286046994.0,N
1511180375.9,286046994.0,N
1511180395.7,286046995.0,N
1511180415.6,286046995.4,N
1511180435.4,286046999.1,N
1511180455.2,286046994.2,N
1511180475.1,286046992.3,N
1511180476.0,286046992.3,N
1511180495.8,286046997.5,N
1511180515.6,286046998.6,N
1511180535.5,286047005.3,N
1511180555.3,286047005.4,N
1511180575.1,286047003.2,N
1511180595.9,286047000.3,N
1511180615.7,286046996.1,N
1511180635.5,286046995.4,N
1511180655.3,286046991.3,N
1511180675.2,286046990.3,N
1511180695.0,286046989.6,N
1511180695.9,286046989.6,N
1511180715.7,286046993.9,N
1511180735.6,286046991.7,N
1511180755.4,286046991.4,N
1511180775.2,286046989.7,N
1511180795.1,286046990.1,N
1511180796.0,286046990.1,N
1511180815.8,286046992.6,N
1511180835.6,286046990.1,N
1511180855.5,286046992.9,N
1511180875.3,286046990.9,N
1511180895.1,286046988.9,N
1511180915.9,286046992.5,N
1511180935.7,286046994.6,N
1511180955.5,286046996.4,N
1511180975.3,286046998.9,N
1511180995.2,286046995.6,N
1511181015.0,286046999.0,N
1511181015.9,286046999.0,N
1511181035.7,286047004.0,N
1511181055.6,286047003.6,N
1511181075.4,286047005.5,N
1511181095.2,286047004.2,N
1511181115.1,286047000.6,N
1511181116.0,286047000.6,N
1511181135.8,286046999.9,N
1511181155.6,286046996.6,N
1511181175.5,286047001.2,N
1511181195.3,286047002.5,N
1511181215.1,286046996.9,N
1511181235.9,286046998.0,N
1511181255.7,286047005.4,N
1511181275.5,286047003.6,N
1511181295.4,286047005.4,N
1511181315.2,286047004.1,N
1511181335.0,286047003.4,N
1511181335.9,286047003.4,N
1511181355.7,286046999.8,N
1511181375.6,286046998.1,N
1511181395.4,286047002.2,N
1511181415.2,286047005.8,N
1511181435.1,286046999.7,N
1511181436.0,286046999.7,N
1511181455.8,286046998.7,N
1511181475.6,286047000.9,N
1511181495.5,286047003.8,N
1511181515.3,286047004.2,N
1511181535.1,286047002.7,N
1511181555.9,286047004.3,N
1511181575.7,286047005.2,N
1511181595.5,286047004.2,N
1511181615.4,286047001.7,N
1511181635.2,286047002.0,N
1511181655.0,286047007.1,N
1511181655.9,286047007.1,N
1511181675.8,286047010.7,Y
1511181695.6,286047009.8,P
1511181715.4,286047009.0,N
1511181735.3,286047006.6,N
1511181755.1,286047008.0,N
1511181756.0,286047008.0,N
1511181775.8,286047009.7,Y
1511181795.7,286047000.8,P
1511181815.5,286046997.6,N
1511181835.3,286046995.7,N
1511181855.2,286046995.7,N
1511181875.9,286046999.1,N
1511181895.7,286046999.8,N
1511181915.6,286047002.8,N
1511181935.4,286047000.9,N
1511181955.2,286047002.6,N
1511181975.0,286047000.0,N
1511181975.9,286047000.0,N
1511181995.8,286046999.3,N
1511182015.6,286046999.5,N
1511182035.4,286046999.6,N
1511182055.3,286047000.9,N
1511182075.1,286047001.8,N
1511182095.8,286046998.2,N
1511182115.7,286047002.7,N
1511182135.5,286047005.4,N
1511182155.3,286047001.9,N
1511182175.2,286047000.4,N
1511182195.9,286047003.9,N
1511182215.7,286046999.5,N
1511182235.5,286046997.1,N
1511182255.4,286046995.8,N
1511182275.2,286046999.6,N
1511182295.0,286047000.9,N
1511182295.9,286047000.9,N
1511182315.8,286046999.3,N
1511182335.6,286046997.4,N
1511182355.4,286046997.2,N
1511182375.3,286047000.1,N
1511182395.1,286047002.5,N
1511182396.0,286047002.5,N
1511182415.8,286046996.9,N
1511182435.7,286046995.8,N
1511182455.5,286046994.2,N
1511182475.3,286046989.1,Y
1511182495.2,286046989.0,P
1511182515.9,286046985.6,N
1511182535.7,286046986.9,N
1511182555.6,286046990.6,N
1511182575.4,286046992.1,N
1511182595.2,286046993.1,N
1511182615.1,286046991.5,N
1511182616.0,286046991.5,N
1511182635.8,286046984.5,Y
1511182655.6,286046991.9,P
1511182675.5,286046992.0,P
1511182695.3,286046988.7,P
1511182715.1,286046991.6,Y
1511182735.9,286046995.1,P
1511182755.7,286046995.4,N
1511182775.5,286047000.8,N
1511182795.4,286046997.3,N
